Voltar ao catálogo

STARLINK-34634

AtivoComunicaçõesVLEO
NORAD 65079·PAYLOAD·🇺🇸 United States

Lançado Aug 4, 2025 de Cape Canaveral Space Force Station

Loading…

Próximas Passagens (próximas 24 horas)

TLE

AtualizadoSource: CelesTrak SupGP

Época: Sep 14, 2026, 20:42 UTC

1 65079C 25167B   26257.86298611  .00047101  00000+0  13915-2 0  2571
2 65079  53.1575 221.7274 0001487  96.8523 197.6750 15.34369970    16

Acompanhe STARLINK-34634 em tempo real com AllMySat

Download on the App Store